Torna al catalogo

DELTA 2 R/B(1)

AttivoLEO
NORAD 23640·ROCKET BODY·🇺🇸 United States

Lanciato Aug 5, 1995 da Cape Canaveral Space Force Station

Loading…

Prossimi Passaggi (prossime 24 ore)

TLE

AggiornatoSource: Space-Track

Epoca: Sep 14, 2026, 20:22 UTC

1 23640U 95041B   26257.84913451  .00000152  00000-0  75682-4 0  9991
2 23640  26.6735  82.4411 0289129 149.0967 212.6903 13.28198095511346

Traccia DELTA 2 R/B(1) in tempo reale con AllMySat

Download on the App Store